Flight Track Log - Related Links

Times and Time Zones

All times are in EDT time to prevent confusion due to time zone crossing. See the UAL4553 flight status page for this flight to view local times or setup timezone preferences in your user account.

Time Position Orientation Groundspeed Altitude Reporting Facility
EDT Latitude Longitude Course Direction KTS MPH feet Rate Location/Type
Thu 12:59:42 PM 39.2833 -94.7167 82° East 163 188 1,500  Level Kansas City TRACON
Thu 01:01:07 PM 39.2092 -94.7325 189° South 218 251 3,200 1,469 Climbing Kansas City Center
Thu 01:02:09 PM 39.1428 -94.7050 162° South 268 308 5,100 1,742 Climbing Kansas City Center
Thu 01:03:11 PM 39.1606 -94.6161 76° East 271 312 6,800 1,839 Climbing Kansas City Center
Thu 01:04:00 PM 39.3674 -94.0764 82° East  Level FlightAware Approximate
Thu 01:04:13 PM 39.1958 -94.5133 66° East 280 322 8,900  Level Kansas City Center
Thu 01:05:00 PM 39.3829 -93.9377 82° East  Level FlightAware Approximate
Thu 01:05:15 PM 39.2258 -94.4242 67° East 283 326 10,700  Level Kansas City Center
Thu 01:06:17 PM 39.2642 -94.3128 66° East 304 350 11,900 1,065 Climbing Kansas City Center
Thu 01:07:19 PM 39.2992 -94.2086 67° East 328 377 12,900 919 Climbing Kansas City Center
Thu 01:08:21 PM 39.3431 -94.0811 66° East 348 400 13,800 768 Climbing Kansas City Center
Thu 01:09:24 PM 39.3819 -93.9661 66° East 363 418 14,500 768 Climbing Kansas City Center
Thu 01:10:26 PM 39.4036 -93.8150 79° East 385 443 15,400 823 Climbing Kansas City Center
Thu 01:11:28 PM 39.4225 -93.6900 79° East 386 444 16,200 726 Climbing Kansas City Center
Thu 01:12:30 PM 39.4369 -93.5497 82° East 397 457 16,900 581 Climbing Kansas City Center
Thu 01:13:32 PM 39.4550 -93.4078 81° East 403 464 17,400 823 Climbing Kansas City Center
Thu 01:14:34 PM 39.4756 -93.2347 81° East 409 471 18,600 1,113 Climbing Kansas City Center
Thu 01:15:36 PM 39.4919 -93.0933 81° East 405 466 19,700 1,113 Climbing Kansas City Center
Thu 01:16:38 PM 39.5072 -92.9500 82° East 405 466 20,900 1,161 Climbing Kansas City Center
Thu 01:17:40 PM 39.5244 -92.8092 81° East 405 466 22,100 1,258 Climbing Kansas City Center
Thu 01:18:42 PM 39.5428 -92.6428 82° East 398 458 23,500 1,210 Climbing Kansas City Center
Thu 01:19:44 PM 39.5581 -92.5056 82° East 393 452 24,600 726 Climbing Kansas City Center
Thu 01:20:46 PM 39.5733 -92.3706 82° East 388 447 25,000 194 Climbing Kansas City Center
Thu 01:21:48 PM 39.5892 -92.2261 82° East 398 458 25,000  Level Kansas City Center
Thu 01:22:50 PM 39.6003 -92.0694 85° East 425 489 25,000  Level Kansas City Center
Thu 01:23:52 PM 39.6125 -91.8747 85° East 451 519 25,000  Level Kansas City Center
Thu 01:24:54 PM 39.6217 -91.7125 86° East 456 525 25,000  Level Kansas City Center
Thu 01:25:56 PM 39.6306 -91.5475 86° East 461 531 25,000  Level Kansas City Center
Thu 01:26:58 PM 39.6417 -91.3775 85° East 471 542 25,000  Level Kansas City Center
Thu 01:28:00 PM 39.6531 -91.1758 86° East 473 544 25,000  Level Kansas City Center
Thu 01:29:02 PM 39.6619 -91.0042 86° East 474 545 25,000  Level Kansas City Center
Thu 01:30:04 PM 39.6714 -90.8317 86° East 476 548 25,000  Level Kansas City Center
Thu 01:31:06 PM 39.6803 -90.6589 86° East 478 550 25,000  Level Kansas City Center
Thu 01:32:08 PM 39.6881 -90.4856 87° East 479 551 25,000  Level Kansas City Center
Thu 01:33:10 PM 39.6967 -90.3119 86° East 480 552 25,000  Level Kansas City Center
Thu 01:34:12 PM 39.7042 -90.1372 87° East 483 556 25,000  Level Kansas City Center
Thu 01:35:14 PM 39.7139 -89.9286 86° East 483 556 25,000  Level Kansas City Center
Thu 01:36:17 PM 39.7203 -89.7606 87° East 482 555 25,000  Level Kansas City Center
Thu 01:37:19 PM 39.7275 -89.5886 87° East 481 554 25,000  Level Kansas City Center
Thu 01:38:21 PM 39.7344 -89.4164 87° East 481 554 25,000  Level Kansas City Center
Thu 01:39:23 PM 39.7431 -89.2100 87° East 480 552 25,000  Level Kansas City Center
Thu 01:40:25 PM 39.7494 -89.0378 87° East 481 554 25,000  Level Kansas City Center
Thu 01:41:27 PM 39.7556 -88.8658 87° East 479 551 25,000  Level Kansas City Center
Thu 01:42:29 PM 39.7614 -88.6931 87° East 480 552 25,000  Level Kansas City Center
Thu 01:43:31 PM 39.7669 -88.5208 88° East 480 552 25,000  Level Kansas City Center
Thu 01:44:33 PM 39.7739 -88.3472 87° East 481 554 25,000  Level Kansas City Center
Thu 01:45:35 PM 39.7800 -88.1444 88° East 481 554 25,000  Level Kansas City Center
Thu 01:46:14 PM 39.7806 -88.0444 90° East 481 554 25,000  Level Indianapolis Center
Thu 01:47:16 PM 39.7844 -87.8717 88° East 481 554 25,000  Level Indianapolis Center
Thu 01:48:18 PM 39.7886 -87.6983 88° East 482 555 25,000  Level Indianapolis Center
Thu 01:49:19 PM 39.7947 -87.4906 88° East 483 556 25,000  Level Indianapolis Center
Thu 01:50:21 PM 39.7978 -87.3169 89° East 483 556 25,000  Level Indianapolis Center
Thu 01:51:23 PM 39.8011 -87.1436 89° East 481 554 25,000  Level Indianapolis Center
Thu 01:52:25 PM 39.8058 -86.9700 88° East 481 554 25,000  Level Indianapolis Center
Thu 01:53:27 PM 39.8225 -86.7994 83° East 477 549 25,000  Level Indianapolis Center
Thu 01:54:29 PM 39.8536 -86.6331 76° East 475 547 25,000  Level Indianapolis Center
Thu 01:55:31 PM 39.8833 -86.4631 77° East 476 548 25,000  Level Indianapolis Center
Thu 01:56:33 PM 39.9147 -86.2928 76° East 475 547 25,000  Level Indianapolis Center
Thu 01:57:35 PM 39.9497 -86.0892 77° East 474 545 25,000  Level Indianapolis Center
Thu 01:58:37 PM 39.9786 -85.9211 77° East 474 545 25,000  Level Indianapolis Center
Thu 01:59:39 PM 40.0081 -85.7536 77° East 474 545 25,000  Level Indianapolis Center
Thu 02:00:41 PM 40.0361 -85.5869 78° East 473 544 25,000  Level Indianapolis Center
Thu 02:01:43 PM 40.0647 -85.4197 77° East 473 544 25,000  Level Indianapolis Center
Thu 02:02:45 PM 40.1139 -85.2614 68° East 475 547 25,000  Level Indianapolis Center
Thu 02:03:47 PM 40.1719 -85.1111 63° Northeast 468 539 25,000  Level Indianapolis Center
Thu 02:04:49 PM 40.2419 -84.9303 63° Northeast 467 537 25,000  Level Indianapolis Center
Thu 02:05:51 PM 40.2978 -84.7886 63° Northeast 471 542 25,000  Level Indianapolis Center
Thu 02:06:53 PM 40.3561 -84.6358 63° Northeast 466 536 25,000  Level Indianapolis Center
Thu 02:07:55 PM 40.4244 -84.4558 63° Northeast 467 537 25,000  Level Indianapolis Center
Thu 02:08:57 PM 40.4822 -84.3019 64° Northeast 465 535 25,000  Level Indianapolis Center
Thu 02:09:59 PM 40.5403 -84.1478 64° Northeast 465 535 25,000  Level Indianapolis Center
Thu 02:11:01 PM 40.5986 -83.9939 63° Northeast 466 536 25,000  Level Indianapolis Center
Thu 02:12:02 PM 40.6564 -83.8394 64° Northeast 465 535 25,000  Level Indianapolis Center
Thu 02:13:04 PM 40.7125 -83.6847 64° Northeast 464 534 25,000  Level Indianapolis Center
Thu 02:14:06 PM 40.7697 -83.5297 64° Northeast 465 535 25,000  Level Indianapolis Center
Thu 02:15:08 PM 40.8325 -83.3614 64° Northeast 467 537 25,000  Level Indianapolis Center
Thu 02:15:56 PM 40.8758 -83.2522 62° Northeast 457 526 25,000  Level Cleveland Center
Thu 02:16:56 PM 40.9703 -83.1406 42° Northeast 418 481 25,000  Level Cleveland Center
Thu 02:17:56 PM 41.0511 -83.0639 36° Northeast 395 455 25,000  Level Cleveland Center
Thu 02:18:56 PM 41.1319 -82.9872 36° Northeast 372 428 25,000  Level Cleveland Center
Thu 02:19:56 PM 41.2128 -82.9100 36° Northeast 360 414 25,000  Level Cleveland Center
Thu 02:20:56 PM 41.3000 -82.8275 35° Northeast 369 425 25,000  Level Cleveland Center
Thu 02:21:56 PM 41.3914 -82.7392 36° Northeast 394 453 25,000  Level Cleveland Center
Thu 02:22:56 PM 41.4911 -82.6456 35° Northeast 422 486 25,000  Level Cleveland Center
Thu 02:23:56 PM 41.5992 -82.5464 34° Northeast 430 495 25,000  Level Cleveland Center
Thu 02:24:56 PM 41.6806 -82.4208 49° Northeast 429 494 25,000  Level Cleveland Center
Thu 02:25:56 PM 41.6978 -82.2517 82° East 423 487 25,000  Level Cleveland Center
Thu 02:26:56 PM 41.7083 -82.0850 85° East 428 493 25,000  Level Cleveland Center
Thu 02:27:56 PM 41.7186 -81.9211 85° East 440 506 25,000  Level Cleveland Center
Thu 02:28:56 PM 41.7308 -81.7572 84° East 440 506 25,000  Level Cleveland Center
Thu 02:29:56 PM 41.7406 -81.6100 85° East 440 506 25,000  Level Cleveland Center
Thu 02:30:56 PM 41.7503 -81.4486 85° East 440 506 25,000  Level Cleveland Center
Thu 02:31:56 PM 41.7597 -81.2819 86° East 440 506 25,000  Level Cleveland Center
Thu 02:32:56 PM 41.7711 -81.1233 84° East 440 506 25,000  Level Cleveland Center
Thu 02:33:56 PM 41.7822 -80.9394 85° East 446 513 25,000  Level Cleveland Center
Thu 02:34:56 PM 41.8264 -80.7839 69° East 431 496 25,000  Level Cleveland Center
Thu 02:35:56 PM 41.8808 -80.6361 64° Northeast 431 496 25,000  Level Cleveland Center
Thu 02:36:56 PM 41.9328 -80.4883 65° Northeast 436 502 25,000  Level Cleveland Center
Thu 02:37:56 PM 41.9283 -80.3181 92° East 437 503 25,000  Level Cleveland Center
Thu 02:38:56 PM 41.9008 -80.1536 103° East 434 499 25,000  Level Cleveland Center
Thu 02:39:56 PM 41.8731 -79.9892 103° East 452 520 25,000  Level Cleveland Center
Thu 02:40:56 PM 41.8428 -79.8278 104° East 447 514 25,000  Level Cleveland Center
Thu 02:41:56 PM 41.8186 -79.6636 101° East 447 514 25,000  Level Cleveland Center
Thu 02:42:56 PM 41.7903 -79.5025 103° East 447 514 25,000  Level Cleveland Center
Thu 02:43:56 PM 41.7614 -79.3417 103° East 447 514 25,000  Level Cleveland Center
Thu 02:44:56 PM 41.7347 -79.1808 102° East 447 514 25,000  Level Cleveland Center
Thu 02:45:56 PM 41.7033 -79.0175 104° East 452 520 25,000  Level Cleveland Center
Thu 02:46:56 PM 41.6761 -78.8567 103° East 452 520 25,000  Level Cleveland Center
Thu 02:47:56 PM 41.6464 -78.6992 104° East 447 514 25,000  Level Cleveland Center
Thu 02:48:56 PM 41.6167 -78.5389 104° East 447 514 25,000  Level Cleveland Center
Thu 02:49:56 PM 41.5867 -78.3789 104° East 447 514 25,000  Level Cleveland Center
Thu 02:50:56 PM 41.5583 -78.2161 103° East 447 514 25,000  Level Cleveland Center
Thu 02:51:55 PM 41.5347 -78.0681 102° East 457 526 25,000  Level New York Center
Thu 02:52:55 PM 41.5061 -77.9211 105° East 438 504 25,000  Level New York Center
Thu 02:53:56 PM 41.4822 -77.7633 101° East 438 504 25,000  Level New York Center
Thu 02:54:56 PM 41.4606 -77.5978 100° East 438 504 25,000  Level New York Center
Thu 02:55:54 PM 41.4364 -77.4375 101° East 443 510 25,000  Level New York Center
Thu 02:56:54 PM 41.4119 -77.2744 101° East 443 510 25,000  Level New York Center
Thu 02:57:55 PM 41.3872 -77.1144 102° East 438 504 25,000 -98 Level New York Center
Thu 02:58:56 PM 41.3644 -76.9547 101° East 438 504 24,800 -595 Descending New York Center
Thu 02:59:56 PM 41.3394 -76.7950 102° East 438 504 23,800 -974 Descending New York Center
Thu 03:00:53 PM 41.3011 -76.6422 108° East 438 504 22,900 -966 Descending New York Center
Thu 03:01:54 PM 41.2625 -76.4981 110° East 431 496 21,900 -992 Descending New York Center
Thu 03:02:54 PM 41.2197 -76.3483 111° Southeast 426 490 20,900 -1,091 Descending New York Center
Thu 03:03:55 PM 41.1769 -76.1878 109° East 426 490 19,700 -1,388 Descending New York Center
Thu 03:04:55 PM 41.1436 -76.0500 108° East 407 468 18,100 -1,636 Descending New York Center
Thu 03:05:56 PM 41.1094 -75.9317 111° Southeast 386 444 16,400 -1,800 Descending New York Center
Thu 03:06:55 PM 41.0753 -75.8025 109° East 376 433 14,500 -1,600 Descending New York Center
Thu 03:07:56 PM 41.0336 -75.6564 111° Southeast 381 438 13,200 -793 Descending New York Center
Thu 03:08:56 PM 41.0047 -75.5469 109° East 368 423 12,900 -667 Descending New York Center
Thu 03:09:53 PM 40.9681 -75.4181 111° Southeast 351 404 11,900 -1,017 Descending New York Center
Thu 03:10:54 PM 40.9406 -75.3256 111° Southeast 310 357 10,900 -992 Descending New York Center
Thu 03:11:54 PM 40.9131 -75.2247 110° East 292 336 9,900 -1,041 Descending New York Center
Thu 03:12:55 PM 40.8836 -75.1186 110° East 292 336 8,800 -992 Descending New York Center
Thu 03:13:55 PM 40.8581 -75.0208 109° East 292 336 7,900 -893 Descending New York Center
Thu 03:14:56 PM 40.8489 -74.9269 97° East 268 308 7,000 -454 Descending New York Center
Thu 03:15:54 PM 40.8436 -74.8389 95° East 250 288 7,000 -305 Level New York Center
Thu 03:16:54 PM 40.8383 -74.7536 95° East 233 268 6,400 -793 Descending New York Center
Thu 03:17:55 PM 40.8133 -74.6836 115° Southeast 220 253 5,400 -694 Descending New York Center
Thu 03:18:55 PM 40.7539 -74.6611 164° South 196 226 5,000 -198 Descending New York Center
Thu 03:19:56 PM 40.6897 -74.6436 168° South 221 254 5,000  Level New York Center
Thu 03:20:54 PM 40.6297 -74.6294 170° South 227 261 5,000  Level New York Center
Thu 03:21:46 PM 40.5667 -74.6333 183° South 236 272 5,000  Level New York TRACON
Thu 03:22:47 PM 40.5167 -74.6000 153° Southeast 233 268 5,000  Level New York TRACON
Thu 03:23:47 PM 40.4500 -74.5667 159° South 230 265 5,000  Level New York TRACON
Thu 03:24:47 PM 40.4000 -74.5167 143° Southeast 230 265 5,000 -158 Level New York TRACON
Thu 03:25:41 PM 40.3833 -74.4500 108° East 235 270 4,700 -600 Descending New York TRACON
Thu 03:26:47 PM 40.4000 -74.3667 75° East 207 238 3,800 -810 Descending New York TRACON
Thu 03:27:47 PM 40.4333 -74.3333 37° Northeast 176 203 3,000 -600 Descending New York TRACON
Thu 03:28:47 PM 40.4667 -74.3000 37° Northeast 153 176 2,600 -450 Descending New York TRACON
Thu 03:29:47 PM 40.5167 -74.2833 14° North 150 173 2,100 -300 Descending New York TRACON
Thu 03:30:47 PM 40.5500 -74.2500 37° Northeast 147 169 2,000 -50 Descending New York TRACON
Thu 03:31:47 PM 40.5833 -74.2333 21° North 151 174 2,000 -350 Level New York TRACON
Thu 03:32:47 PM 40.6167 -74.2167 21° North 133 153 1,300 -700 Descending New York TRACON

Login

Don't have an account? Register now (free) for customized features, flight alerts, and more!